Location: Baia Mare
(47.6567°N, 23.5850°E)
Time: 12:38:10
(UTC+02:00)

ISS - Pass Details

Date: 29 March 2018
Orbit: 417 x 420 km, 51.6° (Epoch: 30 October)

Event Time Altitude Azimuth Distance (km) Brightness Sun altitude
Rises 22:03:48 0° 292° (WNW) 2,422 1.5 -21.8°
Reaches altitude 10° 22:05:57 10° 296° (WNW) 1,547 0.2 -22.1°
Enters shadow 22:08:56 55° 336° (NNW) 530 -3.1 -22.5°
